Year,Month,Day,Hour,Minute,Value (Times are PST for windgust in km/hr)
2006,02,04,00,00,9.60
2006,02,04,00,01,17.70
2006,02,04,00,02,16.10
2006,02,04,00,03,9.60
2006,02,04,00,04,11.30
2006,02,04,00,05,14.50
2006,02,04,00,06,22.50
2006,02,04,00,07,22.50
2006,02,04,00,08,12.90
2006,02,04,00,09,9.60
2006,02,04,00,10,19.30
2006,02,04,00,11,19.30
2006,02,04,00,12,17.70
2006,02,04,00,13,11.30
2006,02,04,00,14,14.50
2006,02,04,00,15,16.10
2006,02,04,00,16,19.30
2006,02,04,00,17,16.10
2006,02,04,00,18,11.30
2006,02,04,00,19,6.40
2006,02,04,00,20,9.60
2006,02,04,00,21,14.50
2006,02,04,00,22,22.50
2006,02,04,00,23,14.50
2006,02,04,00,24,11.30
2006,02,04,00,25,14.50
2006,02,04,00,26,8.10
2006,02,04,00,27,14.50
2006,02,04,00,28,11.30
2006,02,04,00,29,12.90
2006,02,04,00,30,11.30
2006,02,04,00,31,20.90
2006,02,04,00,32,12.90
2006,02,04,00,33,17.70
2006,02,04,00,34,11.30
2006,02,04,00,35,9.60
2006,02,04,00,36,16.10
2006,02,04,00,37,8.10
2006,02,04,00,38,6.40
2006,02,04,00,39,16.10
2006,02,04,00,40,9.60
2006,02,04,00,41,9.60
2006,02,04,00,42,16.10
2006,02,04,00,43,9.60
2006,02,04,00,44,6.40
2006,02,04,00,45,11.30
2006,02,04,00,46,6.40
2006,02,04,00,47,9.60
2006,02,04,00,48,8.10
2006,02,04,00,49,12.90
2006,02,04,00,50,9.60
2006,02,04,00,51,14.50
2006,02,04,00,52,4.80
2006,02,04,00,53,11.30
2006,02,04,00,54,14.50
2006,02,04,00,55,8.10
2006,02,04,00,56,3.20
2006,02,04,00,57,16.10
2006,02,04,00,58,8.10
2006,02,04,00,59,1.60
2006,02,04,01,00,9.60
2006,02,04,01,01,6.40
2006,02,04,01,02,8.10
2006,02,04,01,03,9.60
2006,02,04,01,04,9.60
2006,02,04,01,05,6.40
2006,02,04,01,06,8.10
2006,02,04,01,07,8.10
2006,02,04,01,08,8.10
2006,02,04,01,09,6.40
2006,02,04,01,10,8.10
2006,02,04,01,11,8.10
2006,02,04,01,12,6.40
2006,02,04,01,13,1.60
2006,02,04,01,14,1.60
2006,02,04,01,15,1.60
2006,02,04,01,16,3.20
2006,02,04,01,17,1.60
2006,02,04,01,18,3.20
2006,02,04,01,19,3.20
2006,02,04,01,20,3.20
2006,02,04,01,21,3.20
2006,02,04,01,22,3.20
2006,02,04,01,23,4.80
2006,02,04,01,24,4.80
2006,02,04,01,25,3.20
2006,02,04,01,26,3.20
2006,02,04,01,27,1.60
2006,02,04,01,28,3.20
2006,02,04,01,29,3.20
2006,02,04,01,30,3.20
2006,02,04,01,31,3.20
2006,02,04,01,32,1.60
2006,02,04,01,33,0.00
2006,02,04,01,34,4.80
2006,02,04,01,35,6.40
2006,02,04,01,36,1.60
2006,02,04,01,37,1.60
2006,02,04,01,38,4.80
2006,02,04,01,39,4.80
2006,02,04,01,40,9.60
2006,02,04,01,41,11.30
2006,02,04,01,42,8.10
2006,02,04,01,43,3.20
2006,02,04,01,44,3.20
2006,02,04,01,45,3.20
2006,02,04,01,46,3.20
2006,02,04,01,47,3.20
2006,02,04,01,48,3.20
2006,02,04,01,49,4.80
2006,02,04,01,50,4.80
2006,02,04,01,51,6.40
2006,02,04,01,52,3.20
2006,02,04,01,53,3.20
2006,02,04,01,54,3.20
2006,02,04,01,55,4.80
2006,02,04,01,56,3.20
2006,02,04,01,57,3.20
2006,02,04,01,58,3.20
2006,02,04,01,59,3.20
2006,02,04,02,00,3.20
2006,02,04,02,01,1.60
2006,02,04,02,02,0.00
2006,02,04,02,03,1.60
2006,02,04,02,04,3.20
2006,02,04,02,05,3.20
2006,02,04,02,06,4.80
2006,02,04,02,07,4.80
2006,02,04,02,08,3.20
2006,02,04,02,09,1.60
2006,02,04,02,10,1.60
2006,02,04,02,11,0.00
2006,02,04,02,12,1.60
2006,02,04,02,13,1.60
2006,02,04,02,14,3.20
2006,02,04,02,15,3.20
2006,02,04,02,16,3.20
2006,02,04,02,17,4.80
2006,02,04,02,18,3.20
2006,02,04,02,19,3.20
2006,02,04,02,20,3.20
2006,02,04,02,21,3.20
2006,02,04,02,22,3.20
2006,02,04,02,23,1.60
2006,02,04,02,24,1.60
2006,02,04,02,25,1.60
2006,02,04,02,26,0.00
2006,02,04,02,27,0.00
2006,02,04,02,28,0.00
2006,02,04,02,29,0.00
2006,02,04,02,30,3.20
2006,02,04,02,31,1.60
2006,02,04,02,32,1.60
2006,02,04,02,33,1.60
2006,02,04,02,34,1.60
2006,02,04,02,35,1.60
2006,02,04,02,36,3.20
2006,02,04,02,37,4.80
2006,02,04,02,38,4.80
2006,02,04,02,39,4.80
2006,02,04,02,40,4.80
2006,02,04,02,41,3.20
2006,02,04,02,42,3.20
2006,02,04,02,43,4.80
2006,02,04,02,44,3.20
2006,02,04,02,45,3.20
2006,02,04,02,46,4.80
2006,02,04,02,47,4.80
2006,02,04,02,48,3.20
2006,02,04,02,49,3.20
2006,02,04,02,50,3.20
2006,02,04,02,51,3.20
2006,02,04,02,52,3.20
2006,02,04,02,53,3.20
2006,02,04,02,54,4.80
2006,02,04,02,55,4.80
2006,02,04,02,56,4.80
2006,02,04,02,57,8.10
2006,02,04,02,58,4.80
2006,02,04,02,59,4.80
2006,02,04,03,00,1.60
2006,02,04,03,01,4.80
2006,02,04,03,02,4.80
2006,02,04,03,03,4.80
2006,02,04,03,04,3.20
2006,02,04,03,05,4.80
2006,02,04,03,06,3.20
2006,02,04,03,07,3.20
2006,02,04,03,08,3.20
2006,02,04,03,09,1.60
2006,02,04,03,10,4.80
2006,02,04,03,11,3.20
2006,02,04,03,12,4.80
2006,02,04,03,13,3.20
2006,02,04,03,14,9.60
2006,02,04,03,15,8.10
2006,02,04,03,16,24.20
2006,02,04,03,17,16.10
2006,02,04,03,18,6.40
2006,02,04,03,19,24.20
2006,02,04,03,20,16.10
2006,02,04,03,21,20.90
2006,02,04,03,22,14.50
2006,02,04,03,23,17.70
2006,02,04,03,24,9.60
2006,02,04,03,25,14.50
2006,02,04,03,26,9.60
2006,02,04,03,27,6.40
2006,02,04,03,28,8.10
2006,02,04,03,29,4.80
2006,02,04,03,30,9.60
2006,02,04,03,31,17.70
2006,02,04,03,32,12.90
2006,02,04,03,33,4.80
2006,02,04,03,34,1.60
2006,02,04,03,35,1.60
2006,02,04,03,36,8.10
2006,02,04,03,37,9.60
2006,02,04,03,38,9.60
2006,02,04,03,39,9.60
2006,02,04,03,40,6.40
2006,02,04,03,41,16.10
2006,02,04,03,42,11.30
2006,02,04,03,43,6.40
2006,02,04,03,44,27.40
2006,02,04,03,45,17.70
2006,02,04,03,46,20.90
2006,02,04,03,47,17.70
2006,02,04,03,48,16.10
2006,02,04,03,49,22.50
2006,02,04,03,50,25.70
2006,02,04,03,51,20.90
2006,02,04,03,52,24.20
2006,02,04,03,53,16.10
2006,02,04,03,54,30.60
2006,02,04,03,55,25.70
2006,02,04,03,56,27.40
2006,02,04,03,57,22.50
2006,02,04,03,58,27.40
2006,02,04,03,59,27.40
2006,02,04,04,00,24.20
2006,02,04,04,01,32.20
2006,02,04,04,02,29.00
2006,02,04,04,03,22.50
2006,02,04,04,04,32.20
2006,02,04,04,05,29.00
2006,02,04,04,06,16.10
2006,02,04,04,07,22.50
2006,02,04,04,08,16.10
2006,02,04,04,09,22.50
2006,02,04,04,10,30.60
2006,02,04,04,11,35.40
2006,02,04,04,12,17.70
2006,02,04,04,13,25.70
2006,02,04,04,14,11.30
2006,02,04,04,15,27.40
2006,02,04,04,16,29.00
2006,02,04,04,17,22.50
2006,02,04,04,18,24.20
2006,02,04,04,19,25.70
2006,02,04,04,20,24.20
2006,02,04,04,21,17.70
2006,02,04,04,22,27.40
2006,02,04,04,23,30.60
2006,02,04,04,24,25.70
2006,02,04,04,25,17.70
2006,02,04,04,26,22.50
2006,02,04,04,27,24.20
2006,02,04,04,28,20.90
2006,02,04,04,29,9.60
2006,02,04,04,30,24.20
2006,02,04,04,31,14.50
2006,02,04,04,32,24.20
2006,02,04,04,33,24.20
2006,02,04,04,34,22.50
2006,02,04,04,35,6.40
2006,02,04,04,36,6.40
2006,02,04,04,37,22.50
2006,02,04,04,38,24.20
2006,02,04,04,39,30.60
2006,02,04,04,40,27.40
2006,02,04,04,41,22.50
2006,02,04,04,42,27.40
2006,02,04,04,43,11.30
2006,02,04,04,44,19.30
2006,02,04,04,45,22.50
2006,02,04,04,46,24.20
2006,02,04,04,47,14.50
2006,02,04,04,48,8.10
2006,02,04,04,49,25.70
2006,02,04,04,50,14.50
2006,02,04,04,51,19.30
2006,02,04,04,52,25.70
2006,02,04,04,53,20.90
2006,02,04,04,54,22.50
2006,02,04,04,55,29.00
2006,02,04,04,56,24.20
2006,02,04,04,57,14.50
2006,02,04,04,58,17.70
2006,02,04,04,59,24.20
2006,02,04,05,00,35.40
2006,02,04,05,01,38.60
2006,02,04,05,02,29.00
2006,02,04,05,03,35.40
2006,02,04,05,04,27.40
2006,02,04,05,05,35.40
2006,02,04,05,06,22.50
2006,02,04,05,07,20.90
2006,02,04,05,08,20.90
2006,02,04,05,09,25.70
2006,02,04,05,10,24.20
2006,02,04,05,11,22.50
2006,02,04,05,12,19.30
2006,02,04,05,13,12.90
2006,02,04,05,14,24.20
2006,02,04,05,15,25.70
2006,02,04,05,16,16.10
2006,02,04,05,17,22.50
2006,02,04,05,18,17.70
2006,02,04,05,19,27.40
2006,02,04,05,20,22.50
2006,02,04,05,21,24.20
2006,02,04,05,22,17.70
2006,02,04,05,23,29.00
2006,02,04,05,24,14.50
2006,02,04,05,25,29.00
2006,02,04,05,26,32.20
2006,02,04,05,27,25.70
2006,02,04,05,28,19.30
2006,02,04,05,29,24.20
2006,02,04,05,30,29.00
2006,02,04,05,31,20.90
2006,02,04,05,32,27.40
2006,02,04,05,33,20.90
2006,02,04,05,34,20.90
2006,02,04,05,35,20.90
2006,02,04,05,36,20.90
2006,02,04,05,37,25.70
2006,02,04,05,38,33.80
2006,02,04,05,39,27.40
2006,02,04,05,40,38.60
2006,02,04,05,41,25.70
2006,02,04,05,42,19.30
2006,02,04,05,43,25.70
2006,02,04,05,44,20.90
2006,02,04,05,45,16.10
2006,02,04,05,46,25.70
2006,02,04,05,47,19.30
2006,02,04,05,48,17.70
2006,02,04,05,49,12.90
2006,02,04,05,50,30.60
2006,02,04,05,51,16.10
2006,02,04,05,52,24.20
2006,02,04,05,53,19.30
2006,02,04,05,54,11.30
2006,02,04,05,55,22.50
2006,02,04,05,56,22.50
2006,02,04,05,57,24.20
2006,02,04,05,58,11.30
2006,02,04,05,59,24.20
2006,02,04,06,00,25.70
2006,02,04,06,01,20.90
2006,02,04,06,02,8.10
2006,02,04,06,03,20.90
2006,02,04,06,04,11.30
2006,02,04,06,05,9.60
2006,02,04,06,06,6.40
2006,02,04,06,07,6.40
2006,02,04,06,08,22.50
2006,02,04,06,09,16.10
2006,02,04,06,10,24.20
2006,02,04,06,11,22.50
2006,02,04,06,12,17.70
2006,02,04,06,13,14.50
2006,02,04,06,14,11.30
2006,02,04,06,15,29.00
2006,02,04,06,16,16.10
2006,02,04,06,17,14.50
2006,02,04,06,18,14.50
2006,02,04,06,19,17.70
2006,02,04,06,20,11.30
2006,02,04,06,21,9.60
2006,02,04,06,22,3.20
2006,02,04,06,23,3.20
2006,02,04,06,24,11.30
2006,02,04,06,25,16.10
2006,02,04,06,26,11.30
2006,02,04,06,27,22.50
2006,02,04,06,28,25.70
2006,02,04,06,29,22.50
2006,02,04,06,30,20.90
2006,02,04,06,31,14.50
2006,02,04,06,32,17.70
2006,02,04,06,33,6.40
2006,02,04,06,34,22.50
2006,02,04,06,35,12.90
2006,02,04,06,36,16.10
2006,02,04,06,37,25.70
2006,02,04,06,38,25.70
2006,02,04,06,39,24.20
2006,02,04,06,40,19.30
2006,02,04,06,41,25.70
2006,02,04,06,42,20.90
2006,02,04,06,43,25.70
2006,02,04,06,44,24.20
2006,02,04,06,45,20.90
2006,02,04,06,46,25.70
2006,02,04,06,47,27.40
2006,02,04,06,48,30.60
2006,02,04,06,49,25.70
2006,02,04,06,50,29.00
2006,02,04,06,51,35.40
2006,02,04,06,52,25.70
2006,02,04,06,53,30.60
2006,02,04,06,54,37.00
2006,02,04,06,55,38.60
2006,02,04,06,56,22.50
2006,02,04,06,57,22.50
2006,02,04,06,58,8.10
2006,02,04,06,59,17.70
2006,02,04,07,00,17.70
2006,02,04,07,01,25.70
2006,02,04,07,02,24.20
2006,02,04,07,03,17.70
2006,02,04,07,04,22.50
2006,02,04,07,05,30.60
2006,02,04,07,06,27.40
2006,02,04,07,07,24.20
2006,02,04,07,08,9.60
2006,02,04,07,09,29.00
2006,02,04,07,10,17.70
2006,02,04,07,11,17.70
2006,02,04,07,12,19.30
2006,02,04,07,13,19.30
2006,02,04,07,14,19.30
2006,02,04,07,15,33.80
2006,02,04,07,16,24.20
2006,02,04,07,17,30.60
2006,02,04,07,18,20.90
2006,02,04,07,19,9.60
2006,02,04,07,20,19.30
2006,02,04,07,21,32.20
2006,02,04,07,22,25.70
2006,02,04,07,23,37.00
2006,02,04,07,24,24.20
2006,02,04,07,25,6.40
2006,02,04,07,26,30.60
2006,02,04,07,27,25.70
2006,02,04,07,28,8.10
2006,02,04,07,29,30.60
2006,02,04,07,30,27.40
2006,02,04,07,31,17.70
2006,02,04,07,32,33.80
2006,02,04,07,33,14.50
2006,02,04,07,34,29.00
2006,02,04,07,35,19.30
2006,02,04,07,36,25.70
2006,02,04,07,37,32.20
2006,02,04,07,38,19.30
2006,02,04,07,39,19.30
2006,02,04,07,40,9.60
2006,02,04,07,41,35.40
2006,02,04,07,42,27.40
2006,02,04,07,43,19.30
2006,02,04,07,44,19.30
2006,02,04,07,45,25.70
2006,02,04,07,46,24.20
2006,02,04,07,47,35.40
2006,02,04,07,48,22.50
2006,02,04,07,49,30.60
2006,02,04,07,50,38.60
2006,02,04,07,51,37.00
2006,02,04,07,52,25.70
2006,02,04,07,53,33.80
2006,02,04,07,54,27.40
2006,02,04,07,55,29.00
2006,02,04,07,56,25.70
2006,02,04,07,57,30.60
2006,02,04,07,58,25.70
2006,02,04,07,59,17.70
2006,02,04,08,00,24.20
2006,02,04,08,01,24.20
2006,02,04,08,02,32.20
2006,02,04,08,03,19.30
2006,02,04,08,04,30.60
2006,02,04,08,05,27.40
2006,02,04,08,06,22.50
2006,02,04,08,07,19.30
2006,02,04,08,08,24.20
2006,02,04,08,09,22.50
2006,02,04,08,10,14.50
2006,02,04,08,11,22.50
2006,02,04,08,12,14.50
2006,02,04,08,13,20.90
2006,02,04,08,14,22.50
2006,02,04,08,15,29.00
2006,02,04,08,16,27.40
2006,02,04,08,17,35.40
2006,02,04,08,18,17.70
2006,02,04,08,19,19.30
2006,02,04,08,20,33.80
2006,02,04,08,21,14.50
2006,02,04,08,22,27.40
2006,02,04,08,23,14.50
2006,02,04,08,24,14.50
2006,02,04,08,25,16.10
2006,02,04,08,26,27.40
2006,02,04,08,27,20.90
2006,02,04,08,28,19.30
2006,02,04,08,29,17.70
2006,02,04,08,30,20.90
2006,02,04,08,31,20.90
2006,02,04,08,32,32.20
2006,02,04,08,33,16.10
2006,02,04,08,34,4.80
2006,02,04,08,35,14.50
2006,02,04,08,36,16.10
2006,02,04,08,37,17.70
2006,02,04,08,38,14.50
2006,02,04,08,39,14.50
2006,02,04,08,40,22.50
2006,02,04,08,41,19.30
2006,02,04,08,42,19.30
2006,02,04,08,43,19.30
2006,02,04,08,44,14.50
2006,02,04,08,45,24.20
2006,02,04,08,46,14.50
2006,02,04,08,47,20.90
2006,02,04,08,48,22.50
2006,02,04,08,49,14.50
2006,02,04,08,50,11.30
2006,02,04,08,51,22.50
2006,02,04,08,52,24.20
2006,02,04,08,53,16.10
2006,02,04,08,54,16.10
2006,02,04,08,55,29.00
2006,02,04,08,56,22.50
2006,02,04,08,57,19.30
2006,02,04,08,58,33.80
2006,02,04,08,59,22.50
2006,02,04,09,00,25.70
2006,02,04,09,01,30.60
2006,02,04,09,02,30.60
2006,02,04,09,03,29.00
2006,02,04,09,04,33.80
2006,02,04,09,05,46.70
2006,02,04,09,06,40.20
2006,02,04,09,07,22.50
2006,02,04,09,08,38.60
2006,02,04,09,09,32.20
2006,02,04,09,10,43.50
2006,02,04,09,11,35.40
2006,02,04,09,12,35.40
2006,02,04,09,13,27.40
2006,02,04,09,14,35.40
2006,02,04,09,15,32.20
2006,02,04,09,16,41.80
2006,02,04,09,17,43.50
2006,02,04,09,18,33.80
2006,02,04,09,19,22.50
2006,02,04,09,20,24.20
2006,02,04,09,21,14.50
2006,02,04,09,22,22.50
2006,02,04,09,23,29.00
2006,02,04,09,24,25.70
2006,02,04,09,25,41.80
2006,02,04,09,26,17.70
2006,02,04,09,27,51.50
2006,02,04,09,28,43.50
2006,02,04,09,29,48.30
2006,02,04,09,30,41.80
2006,02,04,09,31,41.80
2006,02,04,09,32,59.50
2006,02,04,09,33,59.50
2006,02,04,09,34,37.00
2006,02,04,09,35,30.60
2006,02,04,09,36,53.10
2006,02,04,09,37,32.20
2006,02,04,09,38,27.40
2006,02,04,09,39,48.30
2006,02,04,09,40,54.70
2006,02,04,09,41,46.70
2006,02,04,09,42,38.60
2006,02,04,09,43,37.00
2006,02,04,09,44,53.10
2006,02,04,09,45,43.50
2006,02,04,09,46,51.50
2006,02,04,09,47,53.10
2006,02,04,09,48,53.10
2006,02,04,09,49,43.50
2006,02,04,09,50,45.10
2006,02,04,09,51,48.30
2006,02,04,09,52,45.10
2006,02,04,09,53,29.00
2006,02,04,09,54,64.40
2006,02,04,09,55,41.80
2006,02,04,09,56,41.80
2006,02,04,09,57,48.30
2006,02,04,09,58,48.30
2006,02,04,09,59,43.50
2006,02,04,10,00,53.10
2006,02,04,10,01,37.00
2006,02,04,10,02,40.20
2006,02,04,10,03,45.10
2006,02,04,10,04,41.80
2006,02,04,10,05,53.10
2006,02,04,10,06,41.80
2006,02,04,10,07,53.10
2006,02,04,10,08,41.80
2006,02,04,10,09,45.10
2006,02,04,10,10,43.50
2006,02,04,10,11,48.30
2006,02,04,10,12,46.70
2006,02,04,10,13,66.00
2006,02,04,10,14,48.30
2006,02,04,10,15,49.90
2006,02,04,10,16,59.50
2006,02,04,10,17,49.90
2006,02,04,10,18,41.80
2006,02,04,10,19,48.30
2006,02,04,10,20,61.20
2006,02,04,10,21,57.90
2006,02,04,10,22,33.80
2006,02,04,10,23,64.40
2006,02,04,10,24,64.40
2006,02,04,10,25,66.00
2006,02,04,10,26,57.90
2006,02,04,10,27,45.10
2006,02,04,10,28,64.40
2006,02,04,10,29,53.10
2006,02,04,10,30,53.10
2006,02,04,10,31,57.90
2006,02,04,10,32,61.20
2006,02,04,10,33,53.10
2006,02,04,10,34,51.50
2006,02,04,10,35,51.50
2006,02,04,10,36,54.70
2006,02,04,10,37,62.70
2006,02,04,10,38,48.30
2006,02,04,10,39,40.20
2006,02,04,10,40,49.90
2006,02,04,10,41,45.10
2006,02,04,10,42,51.50
2006,02,04,10,43,48.30
2006,02,04,10,44,32.20
2006,02,04,10,45,57.90
2006,02,04,10,46,62.70
2006,02,04,10,47,67.60
2006,02,04,10,48,54.70
2006,02,04,10,49,62.70
2006,02,04,10,50,85.30
2006,02,04,10,51,64.40
2006,02,04,10,52,67.60
2006,02,04,10,53,66.00
2006,02,04,10,54,66.00
2006,02,04,10,55,51.50
2006,02,04,10,56,40.20
2006,02,04,10,57,41.80
2006,02,04,10,58,41.80
2006,02,04,10,59,20.90
2006,02,04,11,00,59.50
2006,02,04,11,01,48.30
2006,02,04,11,02,46.70
2006,02,04,11,03,45.10
2006,02,04,11,04,53.10
2006,02,04,11,05,57.90
2006,02,04,11,06,54.70
2006,02,04,11,07,48.30
2006,02,04,11,08,40.20
2006,02,04,11,09,54.70
2006,02,04,11,10,45.10
2006,02,04,11,11,53.10
2006,02,04,11,12,45.10
2006,02,04,11,13,53.10
2006,02,04,11,14,54.70
2006,02,04,11,15,40.20
2006,02,04,11,16,54.70
2006,02,04,11,17,53.10
2006,02,04,11,18,57.90
2006,02,04,11,19,54.70
2006,02,04,11,20,48.30
2006,02,04,11,21,33.80
2006,02,04,11,22,33.80
2006,02,04,11,23,33.80
2006,02,04,11,24,51.50
2006,02,04,11,25,46.70
2006,02,04,11,26,62.70
2006,02,04,11,27,64.40
2006,02,04,11,28,51.50
2006,02,04,11,29,59.50
2006,02,04,11,30,64.40
2006,02,04,11,31,69.20
2006,02,04,11,32,33.80
2006,02,04,11,33,48.30
2006,02,04,11,34,61.20
2006,02,04,11,35,41.80
2006,02,04,11,36,74.00
2006,02,04,11,37,54.70
2006,02,04,11,38,54.70
2006,02,04,11,39,54.70
2006,02,04,11,40,40.20
2006,02,04,11,41,41.80
2006,02,04,11,42,48.30
2006,02,04,11,43,35.40
2006,02,04,11,44,29.00
2006,02,04,11,45,64.40
2006,02,04,11,46,67.60
2006,02,04,11,47,61.20
2006,02,04,11,48,54.70
2006,02,04,11,49,49.90
2006,02,04,11,50,38.60
2006,02,04,11,51,53.10
2006,02,04,11,52,48.30
2006,02,04,11,53,40.20
2006,02,04,11,54,41.80
2006,02,04,11,55,46.70
2006,02,04,11,56,53.10
2006,02,04,11,57,64.40
2006,02,04,11,58,45.10
2006,02,04,11,59,61.20
2006,02,04,12,00,32.20
2006,02,04,12,01,54.70
2006,02,04,12,02,49.90
2006,02,04,12,03,51.50
2006,02,04,12,04,54.70
2006,02,04,12,05,54.70
2006,02,04,12,06,59.50
2006,02,04,12,07,64.40
2006,02,04,12,08,49.90
2006,02,04,12,09,59.50
2006,02,04,12,10,64.40
2006,02,04,12,11,49.90
2006,02,04,12,12,56.30
2006,02,04,14,16,40.20
2006,02,04,14,17,40.20
2006,02,04,14,18,40.20
2006,02,04,14,19,40.20
2006,02,04,14,20,40.20
2006,02,04,14,21,40.20
2006,02,04,14,22,40.20
2006,02,04,14,23,40.20
2006,02,04,14,24,0.00
2006,02,04,14,25,0.00
2006,02,04,14,26,0.00
2006,02,04,14,27,0.00
2006,02,04,14,28,0.00
2006,02,04,14,29,0.00
2006,02,04,14,30,0.00
2006,02,04,14,31,0.00
2006,02,04,14,32,0.00
2006,02,04,14,33,0.00
2006,02,04,14,34,0.00
2006,02,04,14,35,0.00
2006,02,04,14,36,0.00
2006,02,04,14,37,0.00
2006,02,04,14,38,0.00
2006,02,04,14,39,0.00
2006,02,04,14,40,0.00
2006,02,04,14,41,0.00
2006,02,04,14,42,0.00
2006,02,04,14,43,0.00
2006,02,04,14,44,0.00
2006,02,04,14,45,0.00
2006,02,04,14,46,0.00
2006,02,04,14,47,0.00
2006,02,04,14,48,0.00
2006,02,04,14,49,0.00
2006,02,04,14,50,0.00
2006,02,04,14,51,0.00
2006,02,04,14,52,0.00
2006,02,04,14,53,0.00
2006,02,04,14,54,0.00
2006,02,04,14,55,0.00
2006,02,04,14,56,56.30
2006,02,04,14,57,64.40
2006,02,04,14,58,53.10
2006,02,04,14,59,35.40
2006,02,04,15,00,78.80
2006,02,04,15,01,54.70
2006,02,04,15,02,53.10
2006,02,04,15,03,62.70
2006,02,04,15,04,62.70
2006,02,04,15,05,64.40
2006,02,04,15,06,74.00
2006,02,04,15,07,70.80
2006,02,04,15,08,64.40
2006,02,04,15,09,45.10
2006,02,04,15,10,74.00
2006,02,04,15,11,59.50
2006,02,04,15,12,59.50
2006,02,04,15,13,56.30
2006,02,04,15,14,57.90
2006,02,04,15,15,54.70
2006,02,04,15,16,62.70
2006,02,04,15,17,64.40
2006,02,04,15,18,54.70
2006,02,04,15,19,54.70
2006,02,04,15,20,61.20
2006,02,04,15,21,57.90
2006,02,04,15,22,72.40
2006,02,04,15,23,64.40
2006,02,04,15,24,61.20
2006,02,04,15,25,27.40
2006,02,04,15,26,27.40
2006,02,04,15,27,53.10
2006,02,04,15,28,51.50
2006,02,04,15,29,66.00
2006,02,04,15,30,38.60
2006,02,04,15,31,43.50
2006,02,04,15,32,54.70
2006,02,04,15,33,54.70
2006,02,04,15,34,64.40
2006,02,04,15,35,61.20
2006,02,04,15,36,48.30
2006,02,04,15,37,49.90
2006,02,04,15,38,48.30
2006,02,04,15,39,48.30
2006,02,04,15,40,51.50
2006,02,04,15,41,56.30
2006,02,04,15,42,70.80
2006,02,04,15,43,59.50
2006,02,04,15,44,53.10
2006,02,04,15,45,54.70
2006,02,04,15,46,49.90
2006,02,04,15,47,59.50
2006,02,04,15,48,45.10
2006,02,04,15,49,64.40
2006,02,04,15,50,64.40
2006,02,04,15,51,64.40
2006,02,04,15,52,53.10
2006,02,04,15,53,45.10
2006,02,04,15,54,59.50
2006,02,04,15,55,64.40
2006,02,04,15,56,67.60
2006,02,04,15,57,46.70
2006,02,04,15,58,45.10
2006,02,04,15,59,56.30
2006,02,04,16,00,53.10
2006,02,04,16,01,69.20
2006,02,04,16,02,61.20
2006,02,04,16,03,61.20
2006,02,04,16,04,46.70
2006,02,04,16,05,69.20
2006,02,04,16,06,59.50
2006,02,04,16,07,51.50
2006,02,04,16,08,48.30
2006,02,04,16,09,53.10
2006,02,04,16,10,51.50
2006,02,04,16,11,53.10
2006,02,04,16,12,69.20
2006,02,04,16,13,57.90
2006,02,04,16,14,53.10
2006,02,04,16,15,53.10
2006,02,04,16,16,54.70
2006,02,04,16,17,59.50
2006,02,04,16,18,59.50
2006,02,04,16,19,54.70
2006,02,04,16,20,56.30
2006,02,04,16,21,57.90
2006,02,04,16,22,48.30
2006,02,04,16,23,51.50
2006,02,04,16,24,64.40
2006,02,04,16,25,35.40
2006,02,04,16,26,59.50
2006,02,04,16,27,53.10
2006,02,04,16,28,54.70
2006,02,04,16,29,64.40
2006,02,04,16,30,72.40
2006,02,04,16,31,61.20
2006,02,04,16,32,61.20
2006,02,04,16,33,59.50
2006,02,04,16,34,64.40
2006,02,04,16,35,32.20
2006,02,04,16,36,27.40
2006,02,04,16,37,27.40
2006,02,04,16,38,27.40
2006,02,04,16,39,27.40
2006,02,04,16,40,27.40
2006,02,04,16,41,27.40
2006,02,04,16,42,27.40
2006,02,04,16,43,27.40
2006,02,04,16,44,27.40
2006,02,04,16,45,27.40
2006,02,04,16,46,0.00
2006,02,04,16,47,0.00
2006,02,04,16,48,0.00
2006,02,04,16,49,0.00
2006,02,04,16,50,0.00
2006,02,04,16,51,0.00
2006,02,04,16,52,0.00
2006,02,04,16,53,0.00
2006,02,04,16,54,0.00
2006,02,04,16,55,0.00
2006,02,04,16,56,0.00
2006,02,04,16,57,0.00
2006,02,04,16,58,0.00
2006,02,04,16,59,0.00
2006,02,04,17,00,0.00
2006,02,04,17,01,0.00
2006,02,04,17,02,0.00
2006,02,04,17,03,0.00
2006,02,04,17,04,0.00
2006,02,04,17,05,0.00
2006,02,04,17,06,0.00
2006,02,04,17,07,0.00
2006,02,04,17,08,0.00
2006,02,04,17,09,0.00
2006,02,04,17,10,0.00
2006,02,04,17,11,0.00
2006,02,04,17,12,0.00
2006,02,04,17,13,0.00
2006,02,04,17,14,0.00
2006,02,04,17,15,0.00
2006,02,04,17,16,0.00
2006,02,04,17,17,0.00
2006,02,04,17,18,43.50
2006,02,04,17,19,61.20
2006,02,04,17,20,53.10
2006,02,04,17,21,48.30
2006,02,04,17,22,48.30
2006,02,04,17,23,48.30
2006,02,04,17,24,45.10
2006,02,04,17,25,41.80
2006,02,04,17,26,43.50
2006,02,04,17,27,57.90
2006,02,04,17,28,48.30
2006,02,04,17,29,45.10
2006,02,04,17,30,40.20
2006,02,04,17,31,38.60
2006,02,04,17,32,51.50
2006,02,04,17,33,51.50
2006,02,04,17,34,49.90
2006,02,04,17,35,45.10
2006,02,04,17,36,37.00
2006,02,04,17,37,38.60
2006,02,04,17,38,37.00
2006,02,04,17,39,45.10
2006,02,04,17,40,30.60
2006,02,04,17,41,17.70
2006,02,04,17,42,27.40
2006,02,04,17,43,29.00
2006,02,04,17,44,29.00
2006,02,04,17,45,40.20
2006,02,04,17,46,48.30
2006,02,04,17,47,45.10
2006,02,04,17,48,53.10
2006,02,04,17,49,41.80
2006,02,04,17,50,43.50
2006,02,04,17,51,25.70
2006,02,04,17,52,35.40
2006,02,04,17,53,20.90
2006,02,04,17,54,22.50
2006,02,04,17,55,41.80
2006,02,04,17,56,43.50
2006,02,04,17,57,45.10
2006,02,04,17,58,43.50
2006,02,04,17,59,27.40
2006,02,04,18,00,27.40
2006,02,04,18,01,27.40
2006,02,04,18,02,37.00
2006,02,04,18,03,25.70
2006,02,04,18,04,24.20
2006,02,04,18,05,32.20
2006,02,04,18,06,32.20
2006,02,04,18,07,30.60
2006,02,04,18,08,38.60
2006,02,04,18,09,53.10
2006,02,04,18,10,43.50
2006,02,04,18,11,38.60
2006,02,04,18,12,24.20
2006,02,04,18,13,30.60
2006,02,04,18,14,35.40
2006,02,04,18,15,35.40
2006,02,04,18,16,29.00
2006,02,04,18,17,22.50
2006,02,04,18,18,30.60
2006,02,04,18,19,29.00
2006,02,04,18,20,38.60
2006,02,04,18,21,25.70
2006,02,04,18,22,25.70
2006,02,04,18,23,35.40
2006,02,04,18,24,32.20
2006,02,04,18,25,57.90
2006,02,04,18,26,43.50
2006,02,04,18,27,24.20
2006,02,04,18,28,40.20
2006,02,04,18,29,45.10
2006,02,04,18,30,25.70
2006,02,04,18,31,37.00
2006,02,04,18,32,38.60
2006,02,04,18,33,25.70
2006,02,04,18,34,32.20
2006,02,04,18,35,33.80
2006,02,04,18,36,32.20
2006,02,04,18,37,35.40
2006,02,04,18,38,40.20
2006,02,04,18,39,38.60
2006,02,04,18,40,41.80
2006,02,04,18,41,38.60
2006,02,04,18,42,22.50
2006,02,04,18,43,22.50
2006,02,04,18,44,29.00
2006,02,04,18,45,41.80
2006,02,04,18,46,32.20
2006,02,04,18,47,53.10
2006,02,04,18,48,22.50
2006,02,04,18,49,24.20
2006,02,04,18,50,45.10
2006,02,04,18,51,30.60
2006,02,04,18,52,32.20
2006,02,04,18,53,20.90
2006,02,04,18,54,29.00
2006,02,04,18,55,27.40
2006,02,04,18,56,29.00
2006,02,04,18,57,33.80
2006,02,04,18,58,33.80
2006,02,04,18,59,33.80
2006,02,04,19,00,33.80
2006,02,04,19,01,33.80
2006,02,04,19,02,33.80
2006,02,04,19,03,33.80
2006,02,04,19,04,33.80
2006,02,04,19,05,33.80
2006,02,04,19,06,33.80
2006,02,04,19,07,33.80
2006,02,04,19,08,0.00
2006,02,04,19,09,0.00
2006,02,04,19,10,0.00
2006,02,04,19,11,0.00
2006,02,04,19,12,0.00
2006,02,04,19,13,0.00
2006,02,04,19,14,0.00
2006,02,04,19,15,0.00
2006,02,04,19,16,0.00
2006,02,04,19,17,0.00
2006,02,04,19,18,0.00
2006,02,04,19,19,0.00
2006,02,04,19,20,0.00
2006,02,04,19,21,0.00
2006,02,04,19,22,0.00
2006,02,04,19,23,0.00
2006,02,04,19,24,0.00
2006,02,04,19,25,0.00
2006,02,04,19,26,0.00
2006,02,04,19,27,0.00
2006,02,04,19,28,0.00
2006,02,04,19,29,0.00
2006,02,04,19,30,0.00
2006,02,04,19,31,0.00
2006,02,04,19,32,0.00
2006,02,04,19,33,0.00
2006,02,04,19,34,0.00